# From MPC 24219 1 Ceres,e,10.5834,80.4794,74.0684,2.765957,0.2142574,0.079518,317.7739,12/27.0/2003,2000,H 3.34,0.12 # From MPC 24084 3 Juno,e,12.9717,170.1290,247.9215,2.667333,0.2262499,0.258614,209.7139,12/27.0/2003,2000,H 5.33,0.32 # From MPC 24219 4 Vesta,e,7.1333,103.9376,150.2206,2.361431,0.2716071,0.088643,15.6439,12/27.0/2003,2000,H 3.20,0.32 # From MPO 41498 5 Astraea,e,5.3698,141.6913,357.6103,2.573551,0.2387288,0.193367,27.1710,12/27.0/2003,2000,H 6.85,0.15 # From MPC 24219 6 Hebe,e,14.7674,138.8462,238.9445,2.425289,0.2609508,0.201203,65.9611,12/27.0/2003,2000,H 5.71,0.24 # From MPC 24084 7 Iris,e,5.5222,259.8364,145.3372,2.386862,0.2672779,0.230027,82.3557,12/27.0/2003,2000,H 5.51,0.15 # From MPO 25662 9 Metis,e,5.5763,68.9869,5.5211,2.386457,0.2673460,0.121947,220.6893,12/27.0/2003,2000,H 6.28,0.17 # From MPC 35055 10 Hygiea,e,3.8437,283.6535,313.7464,3.136107,0.1774670,0.119333,238.0997,12/27.0/2003,2000,H 5.43,0.15 # From MPC 24085 11 Parthenope,e,4.6245,125.6367,195.4770,2.452201,0.2566670,0.099635,282.1864,12/27.0/2003,2000,H 6.55,0.15 # From MPC 24085 12 Victoria,e,8.3619,235.5504,69.7744,2.334268,0.2763618,0.220709,25.2901,12/27.0/2003,2000,H 7.24,0.22 # From MPO 25662 15 Eunomia,e,11.7454,293.4896,97.2593,2.645068,0.2291125,0.185511,80.4379,12/27.0/2003,2000,H 5.28,0.23 # From MPC 35055 16 Psyche,e,3.0954,150.3531,228.1562,2.919857,0.1975430,0.139535,264.0257,12/27.0/2003,2000,H 5.90,0.20 # From MPC 38747 17 Thetis,e,5.5871,125.6223,135.8575,2.469935,0.2539076,0.133973,322.3042,12/27.0/2003,2000,H 7.76,0.15 # From MPO 53552 18 Melpomene,e,10.1282,150.5578,227.8736,2.296859,0.2831408,0.217533,120.4325,12/27.0/2003,2000,H 6.51,0.25 # From MPO 53552 19 Fortuna,e,1.5733,211.3816,182.1407,2.441259,0.2583945,0.159340,190.8160,12/27.0/2003,2000,H 7.13,0.10 # From MPO 25662 20 Massalia,e,0.7066,206.5264,255.6659,2.408873,0.2636230,0.143254,82.4415,12/27.0/2003,2000,H 6.50,0.25 # From MPO 2601 21 Lutetia,e,3.0644,80.9223,250.2936,2.435139,0.2593692,0.163783,331.5921,12/27.0/2003,2000,H 7.35,0.11 # From MPO 53552 22 Kalliope,e,13.7120,66.2482,356.4430,2.907546,0.1987990,0.103060,164.1379,12/27.0/2003,2000,H 6.45,0.21 # From MPO 50329 26 Proserpina,e,3.5610,45.9135,192.9677,2.656841,0.2275913,0.087861,270.8773,12/27.0/2003,2000,H 7.5,0.15 # From MPO 4876 27 Euterpe,e,1.5836,94.8145,356.5238,2.347232,0.2740754,0.171591,240.0529,12/27.0/2003,2000,H 7.0,0.15 # From MPO 9657 33 Polyhymnia,e,1.8705,8.6108,338.3252,2.865275,0.2032145,0.337336,285.3572,12/27.0/2003,2000,H 8.55,0.33 # From MPC 30777 39 Laetitia,e,10.3843,157.1770,209.5726,2.769316,0.2138678,0.113216,182.8395,12/27.0/2003,2000,H 6.1,0.15 # From MPC 31001 40 Harmonia,e,4.2555,94.3115,269.2919,2.267212,0.2887126,0.047104,291.2599,12/27.0/2003,2000,H 7.0,0.15 # From MPC 31778 41 Daphne,e,15.7672,178.1747,46.0931,2.764503,0.2144265,0.271598,11.9207,12/27.0/2003,2000,H 7.12,0.10 # From MPC 25032 43 Ariadne,e,3.4672,264.9856,15.7518,2.203954,0.3012314,0.167874,250.8167,12/27.0/2003,2000,H 7.93,0.11 # From MPO 3854 44 Nysa,e,3.7031,131.6118,342.6086,2.423554,0.2612312,0.148963,60.6044,12/27.0/2003,2000,H 7.03,0.46 # From MPO 2601 49 Pales,e,3.1804,286.2125,110.1996,3.085838,0.1818211,0.234045,307.0498,12/27.0/2003,2000,H 7.8,0.15 # From MPC 31001 51 Nemausa,e,9.9720,176.1760,2.4622,2.365538,0.2709001,0.066868,19.0538,12/27.0/2003,2000,H 7.35,0.08 # From MPC 25033 64 Angelina,e,1.3076,309.4482,179.0240,2.683302,0.2242331,0.123393,221.5836,12/27.0/2003,2000,H 7.67,0.48 # From MPC 26379 67 Asia,e,6.0255,202.7300,106.2103,2.422004,0.2614821,0.184408,254.5478,12/27.0/2003,2000,H 8.28,0.15 # From MPC 22665 79 Eurynome,e,4.6224,206.8117,200.4288,2.444085,0.2579465,0.192549,225.7580,12/27.0/2003,2000,H 7.96,0.25 # From MPC 23111 80 Sappho,e,8.6641,218.8293,139.1976,2.295539,0.2833852,0.201137,311.1491,12/27.0/2003,2000,H 7.98,0.15 # From MPC 31001 88 Thisbe,e,5.2181,276.7810,36.6503,2.767320,0.2140992,0.164111,289.9644,12/27.0/2003,2000,H 7.04,0.14 # From MPC 30777 89 Julia,e,16.1409,311.6616,45.0969,2.550023,0.2420404,0.183397,222.8085,12/27.0/2003,2000,H 6.60,0.15 # From MPO 2601 92 Undina,e,9.9224,101.8468,242.5406,3.189183,0.1730553,0.100033,286.7326,12/27.0/2003,2000,H 6.61,0.15 # From MPO 53552 93 Minerva,e,8.5572,4.1670,275.7109,2.754543,0.2155906,0.140796,349.0907,12/27.0/2003,2000,H 7.7,0.15 # From MPC 27886 100 Hekate,e,6.4303,127.3509,185.9647,3.092347,0.1812474,0.164455,309.1457,12/27.0/2003,2000,H 7.67,0.15 # From MPO 2601 106 Dione,e,4.6157,62.4083,329.5766,3.168774,0.1747299,0.174828,329.5137,12/27.0/2003,2000,H 7.41,0.15 # From MPC 25186 128 Nemesis,e,6.2538,76.4712,302.5878,2.749597,0.2161726,0.127752,303.1208,12/27.0/2003,2000,H 7.49,0.15 # From MPO 595 135 Hertha,e,2.3056,343.9112,340.1521,2.428410,0.2604480,0.206279,319.4860,12/27.0/2003,2000,H 8.23,0.15 # From MPC 22796 156 Xanthippe,e,9.7466,242.2028,337.7357,2.732574,0.2181957,0.222423,338.5329,12/27.0/2003,2000,H 8.64,0.15 # From MPC 27289 173 Ino,e,14.2071,148.3653,228.1773,2.741753,0.2171009,0.208396,260.2665,12/27.0/2003,2000,H 7.66,0.01 # From MPC 31001 192 Nausikaa,e,6.8256,343.4635,29.7616,2.402423,0.2646853,0.247460,317.2845,12/27.0/2003,2000,H 7.13,0.03 # From MPC 31001 230 Athamantis,e,9.4338,239.9842,139.0420,2.382544,0.2680048,0.061793,323.2750,12/27.0/2003,2000,H 7.35,0.27 # From MPO 35428 270 Anahita,e,2.3652,254.5758,80.4636,2.198007,0.3024548,0.150644,268.1827,12/27.0/2003,2000,H 8.75,0.15 # From MPC 31001 324 Bamberga,e,11.1072,328.0573,44.1052,2.682601,0.2243210,0.338359,274.8190,12/27.0/2003,2000,H 6.82,0.09 # From MPO 4876 337 Devosa,e,7.8522,355.5711,98.6709,2.383082,0.2679141,0.137906,17.4168,12/27.0/2003,2000,H 8.74,0.19 # From MPO 2601 344 Desiderata,e,18.3530,48.2590,237.3334,2.595330,0.2357301,0.315589,296.5679,12/27.0/2003,2000,H 8.08,0.15 # From MPC 22200 346 Hermentaria,e,8.7601,92.1798,290.1742,2.795871,0.2108281,0.102904,301.2055,12/27.0/2003,2000,H 7.13,0.15 # From MPC 31001 349 Dembowska,e,8.2442,32.5668,346.3097,2.928343,0.1966850,0.085713,120.4181,12/27.0/2003,2000,H 5.93,0.37 # From MPC 31001 354 Eleonora,e,18.3847,140.5156,6.8256,2.799726,0.2103927,0.112584,233.9517,12/27.0/2003,2000,H 6.44,0.37 # From MPC 24086 387 Aquitania,e,18.1330,128.3336,157.6716,2.738885,0.2174420,0.236482,323.2832,12/27.0/2003,2000,H 7.41,0.15 # From MPO 53552 419 Aurelia,e,3.9233,229.3735,44.4584,2.596684,0.2355459,0.252350,293.3742,12/27.0/2003,2000,H 8.42,0.15 # From MPO 2602 599 Luisa,e,16.6706,44.6988,293.0836,2.771432,0.2136228,0.293634,331.2399,12/27.0/2003,2000,H 8.71,0.15 # From MPO 38158 747 Winchester,e,18.1785,130.2120,275.6054,2.993171,0.1903298,0.344530,265.3067,12/27.0/2003,2000,H 7.69,0.15